Flag for Liechtenstein Weather past 2 weeks in Vaduz, Liechtenstein

Now
56 °F

Cool.


Feels Like: 56 °F
Forecast: 39 / 47 °F
Wind: 3 mph from West

Location: Vaduz

Current Time: Oct 21, 2014 at 8:49:34 PM

Latest Report: Oct 21, 2014 at 7:00 PM


Visibility: N/A

Pressure: 29.75 "Hg

Humidity: 95%

Dew point: 54 °F

Location of VaduzLocation

Historic Weather in Vaduz — Graph

°F

Vaduz temperature yesterday

Maximum temperature yesterday: 68 °F (at 4:00 PM)
Minimum temperature yesterday: 58 °F (at 10:00 PM)
Average temperature yesterday: 63 °F

Past Weeks' High & Low Weather Summary

 TemperatureHumidityPressure
High80 °F (Oct 9, 3:00 PM)97% (Oct 12, 7:00 AM)30.25 "Hg (Oct 12, 7:00 AM)
Low47 °F (Oct 12, 7:00 AM)26% (Oct 9, 12:00 PM)29.75 "Hg (Oct 12, 4:00 PM)
Average62 °F68%29.94 "Hg
* Reported Oct 6 7:00 PM — Oct 21 7:00 PM, Vaduz, Weather by CustomWeather, © 2014

Note: Actual official high and low records may vary slightly from our data, if they occured in-between our weather recording intervals... More about our weather records

Advertising

Vaduz weather history for previous 24 hours

 ConditionsComfort  
Time TempWeatherWind HumidityBarometerVisibility
7:00 PM
Oct 21
56 °FCool.3 mph95%29.75 "HgN/A
6:00 PM59 °FCool.2 mph90%29.77 "HgN/A
5:00 PM60 °FOvercast.No wind90%29.83 "Hg4 mi
4:00 PM60 °FCool.2 mph89%29.85 "HgN/A
3:00 PM62 °FCool.3 mph82%29.84 "HgN/A
2:00 PM60 °FCool.3 mph84%29.90 "HgN/A
1:00 PM60 °FCool.2 mph82%29.92 "HgN/A
12:00 PM60 °FCool.3 mph78%29.96 "HgN/A
11:00 AM59 °FRain. Overcast.5 mph81%29.98 "Hg4 mi
10:00 AM57 °FCool.3 mph88%30.01 "HgN/A
9:00 AM56 °FCool.3 mph92%30.01 "HgN/A
8:00 AM56 °FRain. Overcast.6 mph93%30.01 "Hg1 mi
7:00 AM56 °FCool.2 mph95%30.02 "HgN/A
6:00 AM58 °FCool.5 mph84%30.02 "HgN/A
5:00 AM58 °FFog.7 mph89%30.03 "Hg6 mi
4:00 AM59 °FCool.7 mph84%30.06 "HgN/A
3:00 AM59 °FCool.9 mph85%30.02 "HgN/A
2:00 AM62 °FFog.12 mph68%30.03 "Hg6 mi
1:00 AM58 °FCool.3 mph94%30.08 "HgN/A
12:00 AM59 °FCool.6 mph87%30.05 "HgN/A
11:00 PM
Oct 20
58 °FFog.2 mph82%30.05 "Hg6 mi
10:00 PM58 °FCool.1 mph81%30.05 "HgN/A
9:00 PM60 °FCool.2 mph77%30.05 "HgN/A
8:00 PM60 °FFog.1 mph79%30.06 "Hg6 mi
Weather by CustomWeather, © 2014

See weather overviewHow to use our weather pages